Погода в Манадо

Индонезия     1°29′33″N   124°51′53″E
темп.,
°C
ветер,
м/с
пор.,
м/с
влажн.,
%
обл.,
%
осадки,
мм/ч
давл.,
гПа
погр.,
м
2 марта, вт
вт223:00+26зюз3477100 0.0 1012538
02:00+25ююз2380100 5.3 1010233
05:00+24ю2281100 0.4 1010175
08:00+25юв1181100 1.5 1012197
11:00+28сз0270100 0.6 1012488
14:00+28с346988 0.6 1009727
17:00+27ссв347894 0.4 1010689
20:00+26всв238097 1.3 1011500
3 марта, ср
ср323:00+25вюв238599 0.1 1012193
02:00+25вюв2285100 0.5 1010165
05:00+25в3485100 0.1 1010394
08:00+27всв4682100 0.2 1012664
11:00+29св677188 0.3 1011938
14:00+28ссв666483 0.3 1009833
17:00+27св566822 0.0 1009842
20:00+25всв467827 0.0 1011610
4 марта, чт
чт423:00+25в34819 0.0 1012378
02:00+25ююв228140 0.0 1010117
05:00+25ююв118276 0.1 1010122
08:00+26ссз128266 2.6 1012317
11:00+27сз227292 0.7 1012561
14:00+27с237480 3.5 1010727
17:00+26св127756 2.1 1010515
20:00+25всв338378 2.4 1012288
5 марта, пт
пт523:00+25св458986 2.3 1011367
02:00+24юв228778 2.4 1009176
05:00+24юв228125 0.0 1010119
08:00+26вюв117545 0.0 1012266
11:00+27с247593 1.1 1012517
14:00+26всв348197 5.3 1009462
17:00+26св3378100 0.8 1010471
20:00+25всв4687100 3.4 1012355
6 марта, сб
сб623:00+24в468298 0.8 1012391
02:00+24юв227796 1.1 1010136
05:00+24ю1179100 0.0 1010122
08:00+25юв117999 0.0 1012135
11:00+28ссз237165 0.0 1011641
14:00+28сз237143 0.1 1009621
17:00+27ссз227817 0.6 1010534
20:00+25вюв118313 0.7 1012192